| time (UTC) | temp F | wind direction | speed MPH | gust MPH | rain 1hr in | rain 24hr in | rain mn in | humidity % | barometer mb |
| 20260509000004 | 73 | 338 | 7.0 | 14.0 | 0.00 | 0.00 | 0.00 | 17 | 1009.4 |
| 20260508234503 | 73 | 335 | 7.0 | 15.0 | 0.00 | 0.00 | 0.00 | 17 | 1009.3 |
| 20260508233008 | 74 | 354 | 5.0 | 14.0 | 0.00 | 0.00 | 0.00 | 17 | 1009.2 |
| 20260508231514 | 75 | 333 | 8.0 | 16.0 | 0.00 | 0.00 | 0.00 | 17 | 1009.1 |
| 20260508230020 | 76 | 1 | 9.0 | 17.0 | 0.00 | 0.00 | 0.00 | 17 | 1009.2 |
| 20260508224503 | 77 | 242 | 7.0 | 14.0 | 0.00 | 0.00 | 0.00 | 17 | 1009.4 |
| 20260508223010 | 76 | 337 | 9.0 | 13.0 | 0.00 | 0.00 | 0.00 | 17 | 1009.3 |
| 20260508221512 | 76 | 359 | 6.0 | 14.0 | 0.00 | 0.00 | 0.00 | 17 | 1009.3 |
| 20260508220018 | 76 | 251 | 7.0 | 19.0 | 0.00 | 0.00 | 0.00 | 18 | 1009.4 |
| 20260508214522 | 77 | 283 | 8.0 | 15.0 | 0.00 | 0.00 | 0.00 | 18 | 1009.5 |
| 20260508213006 | 76 | 300 | 7.0 | 15.0 | 0.00 | 0.00 | 0.00 | 18 | 1009.6 |
| 20260508211516 | 76 | 276 | 8.0 | 15.0 | 0.00 | 0.00 | 0.00 | 19 | 1009.6 |
| 20260508210018 | 75 | 256 | 7.0 | 24.0 | 0.00 | 0.00 | 0.00 | 19 | 1009.6 |
| 20260508204520 | 75 | 279 | 8.0 | 16.0 | 0.00 | 0.00 | 0.00 | 19 | 1009.6 |
| 20260508203025 | 75 | 316 | 7.0 | 18.0 | 0.00 | 0.00 | 0.00 | 19 | 1009.8 |
| 20260508201511 | 75 | 277 | 8.0 | 19.0 | 0.00 | 0.00 | 0.00 | 18 | 1010.0 |
| 20260508200022 | 75 | 249 | 5.0 | 22.0 | 0.00 | 0.00 | 0.00 | 20 | 1010.0 |
| 20260508194520 | 74 | 270 | 6.0 | 15.0 | 0.00 | 0.00 | 0.00 | 21 | 1010.2 |
| 20260508193024 | 74 | 276 | 9.0 | 15.0 | 0.00 | 0.00 | 0.00 | 20 | 1010.3 |
| 20260508191521 | 74 | 281 | 5.0 | 16.0 | 0.00 | 0.00 | 0.00 | 18 | 1010.4 |
| 20260508190022 | 73 | 293 | 7.0 | 19.0 | 0.00 | 0.00 | 0.00 | 19 | 1010.5 |
| 20260508184520 | 72 | 300 | 5.0 | 13.0 | 0.00 | 0.00 | 0.00 | 23 | 1010.6 |
| 20260508183023 | 72 | 265 | 8.0 | 17.0 | 0.00 | 0.00 | 0.00 | 25 | 1010.8 |
| 20260508181534 | 73 | 276 | 9.0 | 15.0 | 0.00 | 0.00 | 0.00 | 26 | 1010.9 |
| 20260508180012 | 71 | 302 | 6.0 | 13.0 | 0.00 | 0.00 | 0.00 | 1011.3 | |
| 20260508174518 | 70 | 255 | 6.0 | 11.0 | 0.00 | 0.00 | 0.00 | 1011.5 | |
| 20260508173024 | 69 | 271 | 4.0 | 9.0 | 0.00 | 0.00 | 0.00 | 30 | 1011.6 |
| 20260508171526 | 68 | 359 | 4.0 | 10.0 | 0.00 | 0.00 | 0.00 | 33 | 1011.8 |
| 20260508170027 | 66 | 287 | 4.0 | 8.0 | 0.00 | 0.00 | 0.00 | 38 | 1011.8 |
| 20260508164514 | 65 | 345 | 3.0 | 8.0 | 0.00 | 0.00 | 0.00 | 39 | 1011.9 |
| 20260508163020 | 65 | 269 | 5.0 | 9.0 | 0.00 | 0.00 | 0.00 | 40 | 1012.1 |
| 20260508161530 | 64 | 258 | 4.0 | 7.0 | 0.00 | 0.00 | 0.00 | 43 | 1012.3 |
| 20260508160008 | 62 | 240 | 2.0 | 9.0 | 0.00 | 0.00 | 0.00 | 49 | 1012.5 |
| 20260508154516 | 61 | 269 | 4.0 | 8.0 | 0.00 | 0.00 | 0.00 | 50 | 1012.5 |
| 20260508153020 | 60 | 270 | 2.0 | 7.0 | 0.00 | 0.00 | 0.00 | 51 | 1012.7 |
| 20260508151505 | 58 | 288 | 3.0 | 6.0 | 0.00 | 0.00 | 0.00 | 57 | 1012.8 |
| 20260508150010 | 56 | 248 | 1.0 | 6.0 | 0.00 | 0.00 | 0.00 | 61 | 1013.0 |
| 20260508144512 | 54 | 271 | 2.0 | 5.0 | 0.00 | 0.00 | 0.00 | 64 | 1013.1 |
| 20260508143016 | 52 | 276 | 2.0 | 4.0 | 0.00 | 0.00 | 0.00 | 67 | 1013.2 |
| 20260508141531 | 51 | 264 | 2.0 | 5.0 | 0.00 | 0.00 | 0.00 | 70 | 1013.3 |
| 20260508140008 | 49 | 173 | 0.0 | 2.0 | 0.00 | 0.00 | 0.00 | 72 | 1013.4 |
| 20260508134514 | 48 | 173 | 1.0 | 2.0 | 0.00 | 0.00 | 0.00 | 75 | 1013.4 |
| 20260508133015 | 46 | 356 | 0.0 | 0.0 | 0.00 | 0.00 | 0.00 | 78 | 1013.6 |
| 20260508131518 | 44 | 356 | 0.0 | 0.0 | 0.00 | 0.00 | 0.00 | 77 | 1013.5 |
| 20260508130028 | 43 | 356 | 0.0 | 0.0 | 0.00 | 0.00 | 0.00 | 75 | 1013.3 |
| 20260508124507 | 43 | 356 | 0.0 | 0.0 | 0.00 | 0.00 | 0.00 | 74 | 1013.4 |
| 20260508123026 | 41 | 356 | 0.0 | 0.0 | 0.00 | 0.00 | 0.00 | 83 | 1013.3 |
| 20260508121517 | 39 | 356 | 0.0 | 0.0 | 0.00 | 0.00 | 0.00 | 81 | 1013.2 |
| 20260508120026 | 37 | 51 | 0.0 | 0.0 | 0.00 | 0.00 | 0.00 | 77 | 1013.3 |
| 20260508114525 | 38 | 51 | 0.0 | 0.0 | 0.00 | 0.00 | 0.00 | 72 | 1013.3 |
| 20260508113014 | 38 | 51 | 0.0 | 0.0 | 0.00 | 0.00 | 0.00 | 74 | 1013.3 |
| 20260508111517 | 39 | 51 | 0.0 | 0.0 | 0.00 | 0.00 | 0.00 | 73 | 1013.3 |
| 20260508110025 | 41 | 51 | 0.0 | 0.0 | 0.00 | 0.00 | 0.00 | 79 | 1013.4 |
| 20260508104524 | 41 | 51 | 0.0 | 0.0 | 0.00 | 0.00 | 0.00 | 80 | 1013.4 |
| 20260508103033 | 40 | 351 | 0.0 | 0.0 | 0.00 | 0.00 | 0.00 | 75 | 1013.4 |
| 20260508101519 | 40 | 347 | 0.0 | 0.0 | 0.00 | 0.00 | 0.00 | 77 | 1013.5 |
| 20260508100021 | 41 | 347 | 0.0 | 0.0 | 0.00 | 0.00 | 0.00 | 74 | 1013.5 |
| 20260508094525 | 42 | 347 | 0.0 | 0.0 | 0.00 | 0.00 | 0.00 | 73 | 1013.5 |
| 20260508093026 | 43 | 41 | 0.0 | 0.0 | 0.00 | 0.00 | 0.00 | 74 | 1013.6 |
| 20260508091529 | 44 | 41 | 0.0 | 0.0 | 0.00 | 0.00 | 0.00 | 75 | 1013.7 |
| 20260508090030 | 44 | 41 | 0.0 | 0.0 | 0.00 | 0.00 | 0.00 | 72 | 1013.7 |
| 20260508084524 | 44 | 41 | 0.0 | 0.0 | 0.00 | 0.00 | 0.00 | 68 | 1013.8 |
| 20260508083024 | 45 | 41 | 0.0 | 2.0 | 0.00 | 0.00 | 0.00 | 69 | 1013.8 |
| 20260508081528 | 45 | 41 | 0.0 | 2.0 | 0.00 | 0.00 | 0.00 | 66 | 1013.9 |
| 20260508080030 | 47 | 312 | 0.0 | 2.0 | 0.00 | 0.00 | 0.00 | 66 | 1013.9 |
| 20260508074527 | 49 | 281 | 0.0 | 4.0 | 0.00 | 0.00 | 0.00 | 66 | 1013.9 |
| 20260508073026 | 49 | 278 | 3.0 | 5.0 | 0.00 | 0.00 | 0.00 | 64 | 1013.8 |
| 20260508071531 | 50 | 293 | 1.0 | 4.0 | 0.00 | 0.00 | 0.00 | 60 | 1013.8 |
| 20260508070027 | 49 | 262 | 3.0 | 3.0 | 0.00 | 0.00 | 0.00 | 59 | 1013.7 |
| 20260508064519 | 49 | 340 | 0.0 | 3.0 | 0.00 | 0.00 | 0.00 | 58 | 1013.9 |
| 20260508063022 | 50 | 293 | 2.0 | 4.0 | 0.00 | 0.00 | 0.00 | 58 | 1013.6 |
| 20260508061526 | 50 | 297 | 1.0 | 4.0 | 0.00 | 0.00 | 0.00 | 58 | 1013.5 |
| 20260508060029 | 50 | 293 | 2.0 | 4.0 | 0.00 | 0.00 | 0.00 | 58 | 1013.3 |
| 20260508054529 | 51 | 298 | 1.0 | 4.0 | 0.00 | 0.00 | 0.00 | 57 | 1013.3 |
| 20260508053023 | 52 | 284 | 4.0 | 7.0 | 0.00 | 0.00 | 0.00 | 55 | 1013.3 |
| 20260508051527 | 52 | 254 | 4.0 | 6.0 | 0.00 | 0.00 | 0.00 | 57 | 1013.2 |
| 20260508050028 | 53 | 249 | 3.0 | 6.0 | 0.00 | 0.00 | 0.00 | 57 | 1012.9 |
| 20260508044530 | 54 | 239 | 5.0 | 9.0 | 0.00 | 0.00 | 0.00 | 56 | 1013.1 |
| 20260508043027 | 56 | 260 | 6.0 | 9.0 | 0.00 | 0.00 | 0.00 | 53 | 1013.0 |
| 20260508041523 | 56 | 255 | 6.0 | 9.0 | 0.00 | 0.00 | 0.00 | 48 | 1013.2 |
| 20260508040025 | 56 | 264 | 5.0 | 8.0 | 0.00 | 0.00 | 0.00 | 46 | 1013.3 |
| 20260508034528 | 57 | 266 | 6.0 | 11.0 | 0.00 | 0.00 | 0.00 | 46 | 1013.3 |
| 20260508033028 | 57 | 259 | 5.0 | 9.0 | 0.00 | 0.00 | 0.00 | 45 | 1013.2 |
| 20260508031530 | 57 | 266 | 6.0 | 9.0 | 0.00 | 0.00 | 0.00 | 47 | 1013.0 |
| 20260508030008 | 58 | 264 | 8.0 | 12.0 | 0.00 | 0.00 | 0.00 | 48 | 1012.9 |
| 20260508024512 | 59 | 271 | 8.0 | 13.0 | 0.00 | 0.00 | 0.00 | 46 | 1012.8 |
| 20260508023014 | 60 | 238 | 7.0 | 14.0 | 0.00 | 0.00 | 0.00 | 42 | 1012.4 |
| 20260508021529 | 61 | 258 | 9.0 | 17.0 | 0.00 | 0.00 | 0.00 | 39 | 1012.3 |
| 20260508020003 | 63 | 263 | 10.0 | 18.0 | 0.00 | 0.00 | 0.00 | 40 | 1012.2 |
| 20260508014508 | 65 | 276 | 7.0 | 13.0 | 0.00 | 0.00 | 0.00 | 37 | 1012.0 |
| 20260508013022 | 66 | 270 | 7.0 | 12.0 | 0.00 | 0.00 | 0.00 | 34 | 1011.8 |
| 20260508011520 | 67 | 264 | 6.0 | 12.0 | 0.00 | 0.00 | 0.00 | 33 | 1011.9 |
| 20260508010023 | 68 | 247 | 6.0 | 9.0 | 0.00 | 0.00 | 0.00 | 32 | 1011.8 |
| 20260508004509 | 68 | 253 | 5.0 | 13.0 | 0.00 | 0.00 | 0.00 | 34 | 1011.9 |
| 20260508003012 | 68 | 269 | 8.0 | 13.0 | 0.00 | 0.00 | 0.00 | 34 | 1011.8 |
| 20260508001519 | 68 | 258 | 5.0 | 14.0 | 0.00 | 0.00 | 0.00 | 35 | 1011.8 |
| 20260508000021 | 67 | 219 | 5.0 | 11.0 | 0.00 | 0.00 | 0.00 | 38 | 1012.0 |